Niaqornaarsuk Heliport

Jump to: basic info | weather | comments

Related pages: nearby airports | nearby navaids | notams | map

Basic information (top)

Codes: QMK BGNK
Location: lon 68.236381, lat -52.852148, elev 152 ft / 46 m msl
Status: heliport
Scheduled airline service: yes
Links: Wikipedia Mobile

Weather (top)

Current conditions for Aasiaat Airport 29nm (54km) N (rec'd 2014/07/24 10:50Z):

BGAA 241050Z 30004KT 260V330 9999 BKN081 10/10 Q1015 RMK 5AC

Airport forecast for Ilulissat Airport 72nm (133km) NNE (rec'd 2014/11/21 19:00Z):

TAF BGJN 211900Z 2119/2124 10012KT 9999 BKN030 
      TEMPO 2119/2124 SCT030

Latest comments (top)

No comments yet for Niaqornaarsuk Heliport

More... (top)

See also NOTAMs and nearby airports and navaids, or visit the Niaqornaarsuk Heliport page at the main OurAirports website..